RH
17 18 20 22 23 21 22 26 24 19 21 23 21 19 20 18 19 20 20 19 19 22 23 27 31 35 36 37 42 45 46 46 52 54 57 64 63 62 63 63 64 62 59 55 52 49 45 44 44 44 49 45 40 40 41 41 42 43 43 43 42 42 43 46 47 50 51 51 49 47 44 41 38 35 32 29 29 30 30 30 29 28 28 29 29 27 28 29 32 35 36 38 38 35 36 33 32
17 20 21 22 23 22 21 24 24 20 20 21 19 20 20 18 19 19 21 22 22 24 23 26 30 34 36 38 41 42 49 51 54 58 61 61 60 62 64 64 64 61 57 54 51 47 44 44 43 45 47 43 41 40 41 42 43 44 45 44 43 42 44 46 49 51 52 51 48 45 42 38 35 31 29 29 30 31 31 30 29 28 31 32 32 32 33 35 41 41 37 38 40 36 35 34 33
17 21 23 23 23 21 21 24 24 21 20 19 18 20 20 18 18 18 23 26 24 24 25 28 30 35 37 39 40 43 51 53 55 59 60 59 61 63 64 65 63 57 53 50 48 45 44 43 44 46 45 42 42 40 41 43 45 47 46 45 43 43 45 48 50 51 51 49 46 42 39 35 32 30 30 30 30 30 28 29 27 28 33 36 37 38 40 40 41 40 36 38 38 35 35 34 34
18 23 26 23 21 20 21 25 23 22 21 20 18 19 19 19 19 20 26 27 24 25 28 30 32 37 39 41 43 45 49 52 56 58 59 60 61 64 63 64 60 53 50 47 45 44 44 43 44 46 43 42 41 40 42 45 47 49 48 45 43 45 47 49 51 51 50 46 42 39 36 33 31 31 31 30 28 27 27 27 26 29 35 37 38 39 41 40 39 39 36 36 35 32 33 33 35
20 26 27 24 21 18 21 25 24 21 21 20 18 19 20 19 22 24 25 25 24 26 30 32 34 39 40 43 43 45 50 53 56 56 59 61 62 63 63 62 56 50 48 46 44 44 45 44 45 44 42 40 39 40 43 47 49 49 49 46 44 46 48 50 51 50 47 43 40 37 34 32 32 32 30 27 26 25 26 25 26 32 38 38 37 38 39 40 40 39 35 32 31 30 30 30 35
23 30 28 26 24 21 22 23 22 21 19 19 18 22 22 18 24 26 25 26 26 29 31 34 36 39 42 47 47 49 54 54 58 59 61 62 62 61 60 57 54 50 47 47 46 46 45 44 45 44 42 39 39 42 45 48 49 50 48 46 46 49 50 50 49 47 44 40 37 35 34 33 32 32 29 27 25 25 24 23 24 30 39 39 37 38 38 38 38 37 35 31 28 30 31 31 35
27 32 29 25 24 22 23 21 20 20 19 18 19 26 24 19 25 26 26 28 29 32 34 37 38 39 45 48 49 55 58 56 60 61 61 62 62 60 59 56 52 49 46 47 47 47 45 43 44 43 41 39 40 44 47 49 51 51 48 46 49 50 51 50 47 45 41 37 34 32 32 30 30 30 28 26 24 22 21 19 20 25 35 37 36 38 37 37 37 36 35 32 31 34 34 34 37
29 32 29 24 23 22 22 20 21 21 19 18 20 26 24 20 25 27 28 28 30 34 35 39 39 41 46 45 50 58 59 60 59 59 60 61 61 60 58 56 52 48 45 46 46 46 45 42 43 43 40 40 42 47 49 50 52 51 48 48 50 51 51 49 45 42 38 34 32 30 29 27 26 26 25 22 20 18 17 16 16 20 28 33 35 36 35 35 35 35 34 33 34 35 36 37 38
32 34 30 25 22 22 21 19 21 21 19 19 21 23 22 23 27 27 28 28 31 34 36 40 40 42 48 47 53 60 61 61 59 58 59 58 60 59 57 56 53 49 45 46 47 46 44 42 44 44 41 42 44 50 52 51 52 49 48 50 51 51 50 46 42 38 35 32 30 28 27 25 24 22 21 19 18 17 17 16 15 19 23 28 31 31 31 31 31 31 32 35 36 36 36 38 37
31 33 30 27 24 26 23 19 20 21 21 20 21 21 20 25 28 29 30 30 32 35 38 41 42 44 48 51 55 59 60 60 57 58 56 56 58 57 56 55 53 48 45 46 46 46 45 43 45 45 42 44 47 50 54 52 50 48 48 51 50 49 47 43 38 35 32 30 29 26 24 23 22 20 18 19 19 19 19 18 17 18 21 24 27 28 28 27 28 29 31 35 37 36 36 37 36
30 32 29 28 26 29 25 19 20 21 22 20 20 21 21 26 29 33 34 34 34 36 41 43 45 46 48 53 56 59 59 58 57 56 54 54 55 55 55 54 51 48 46 46 46 46 46 44 45 45 44 46 49 49 53 52 48 47 49 50 48 48 45 40 36 33 31 29 27 23 21 20 19 18 17 18 19 21 21 20 19 18 20 22 25 27 26 25 26 27 31 36 38 37 36 36 36
31 33 30 30 26 27 25 21 20 20 22 19 21 21 21 27 30 34 37 37 36 38 44 46 48 49 50 53 56 60 58 56 56 55 53 52 53 53 53 52 50 48 48 47 46 47 47 47 46 47 47 49 51 49 50 49 46 47 48 48 48 48 44 39 35 32 29 27 24 22 21 20 19 19 17 17 17 20 22 22 20 19 20 22 24 25 24 23 25 26 30 37 39 35 33 34 35
32 33 29 29 24 24 26 24 22 22 22 18 22 22 23 29 31 36 38 38 39 42 47 49 52 52 51 53 57 59 57 57 55 52 51 51 52 52 52 52 50 48 49 47 46 48 47 48 49 49 51 52 53 51 49 48 46 46 46 48 49 48 43 37 34 30 26 24 22 21 20 20 20 19 18 17 16 18 21 22 20 18 19 21 24 24 23 22 23 27 31 38 40 35 31 33 34
33 35 29 28 25 26 27 25 24 24 22 18 23 25 24 30 34 39 42 42 41 43 50 53 54 52 52 55 58 58 57 57 53 51 51 50 50 50 52 52 50 49 48 46 46 48 48 48 49 49 51 54 53 51 49 47 46 46 47 49 50 47 42 37 34 29 25 23 21 20 20 20 20 19 19 17 16 16 18 21 21 19 18 19 23 25 24 22 23 26 30 37 39 32 28 29 32
35 38 31 29 29 29 28 27 25 24 23 21 26 27 26 33 37 40 46 50 46 44 53 58 54 52 53 55 57 59 58 56 52 51 50 49 49 49 52 51 49 47 46 48 48 48 47 48 48 48 51 53 52 50 48 46 46 47 49 51 51 48 41 36 32 26 23 22 21 21 20 20 20 20 19 18 17 16 16 19 21 20 20 18 21 27 26 24 25 27 30 36 35 27 23 27 31
33 39 33 32 32 31 29 27 27 25 24 25 28 28 30 37 40 44 48 51 52 50 56 61 57 55 57 55 56 59 59 55 52 50 48 47 48 49 50 49 48 47 47 48 47 46 47 47 47 48 51 52 51 50 48 47 48 49 51 52 49 44 37 33 29 25 23 22 21 19 19 20 20 20 20 20 19 17 16 17 20 21 21 19 18 24 28 28 28 29 31 31 28 22 23 27 30
32 36 33 31 31 32 29 27 28 26 27 30 29 28 34 42 44 49 51 53 59 58 58 63 63 60 59 59 59 60 57 53 50 48 47 47 48 49 49 49 49 48 50 49 45 45 47 46 47 49 50 50 51 50 50 51 52 52 52 50 45 41 37 35 31 27 25 22 20 18 19 20 21 22 21 21 20 20 18 17 19 20 21 20 18 21 27 30 30 31 31 29 25 24 25 26 28
33 33 30 29 27 30 29 27 29 26 31 36 34 32 36 45 50 54 56 59 63 63 65 68 67 63 62 63 61 58 55 52 50 49 49 50 50 50 50 51 51 49 50 50 45 45 47 45 47 50 50 49 51 52 53 55 54 54 54 52 48 45 40 35 30 26 25 23 20 20 21 21 21 22 22 21 22 22 20 18 19 20 22 22 19 19 25 30 31 32 32 28 25 27 30 31 31
32 30 28 28 25 29 31 30 30 30 34 37 37 37 38 46 53 57 60 63 62 62 67 67 66 64 63 64 60 56 54 52 53 54 53 52 51 51 51 50 49 49 49 49 47 47 47 47 49 52 50 49 51 54 55 57 58 58 60 58 52 47 42 35 30 27 26 25 22 22 23 21 21 21 21 20 21 19 17 18 19 21 22 22 22 20 21 29 32 32 30 27 27 34 39 39 38
32 30 27 27 28 32 34 34 34 34 37 38 37 39 45 51 56 62 61 63 64 62 65 66 67 69 66 64 59 55 54 54 56 56 53 51 51 51 51 49 48 48 48 47 46 47 47 48 50 51 51 49 51 55 56 59 61 62 64 61 53 46 41 35 31 27 25 24 23 23 23 22 22 20 19 18 19 19 18 17 16 20 23 23 27 25 21 26 32 35 31 30 35 41 43 41 42
31 31 28 30 34 36 36 35 32 31 35 40 44 46 54 56 57 64 63 64 66 62 62 65 67 71 72 66 58 55 54 56 58 56 53 51 52 51 49 49 48 49 47 46 46 46 46 47 50 51 50 50 53 56 58 61 61 62 63 59 52 43 38 34 30 27 24 24 23 22 22 22 22 20 20 20 22 23 23 20 18 24 31 28 30 35 33 30 35 40 37 36 40 41 40 39 40
32 30 30 34 37 38 38 35 30 29 31 40 50 53 56 57 57 64 66 65 65 62 60 64 68 69 71 68 62 60 57 59 59 56 55 53 53 52 49 49 48 48 46 46 46 46 46 48 51 51 51 52 54 58 61 61 59 61 61 55 48 40 35 32 29 27 24 24 23 20 21 21 21 20 21 22 23 23 23 23 22 26 35 34 35 43 41 38 40 44 43 40 39 38 40 36 39
34 31 31 39 41 38 37 32 31 35 35 43 53 55 54 53 58 66 70 69 68 69 66 67 70 67 70 71 66 64 61 60 60 58 58 55 54 51 50 49 49 48 46 46 47 45 46 49 51 51 52 53 55 60 61 59 59 60 56 48 42 36 32 29 27 26 24 24 22 20 21 20 20 20 21 22 22 23 22 23 23 22 32 37 40 44 40 39 44 44 43 41 38 39 41 39 41
36 36 31 37 41 35 35 33 37 43 43 51 58 58 56 53 61 70 72 71 69 69 71 71 70 68 72 71 66 64 62 61 61 59 59 55 53 52 50 49 49 47 44 46 47 46 46 48 51 52 52 54 58 61 60 59 59 56 49 43 37 31 28 27 25 25 23 23 22 21 21 20 20 20 21 21 21 22 22 23 23 21 28 36 40 41 39 39 43 43 41 40 39 39 43 42 41
37 41 36 34 37 33 36 39 42 47 46 54 60 60 61 61 69 76 74 73 70 71 76 73 69 70 73 71 68 66 64 63 61 60 58 54 52 51 49 49 48 47 46 47 48 48 47 49 52 52 53 55 59 61 61 59 56 51 47 40 34 28 26 26 25 24 22 21 21 21 21 21 21 21 21 21 21 22 23 23 23 22 24 32 39 40 39 39 40 42 40 39 40 40 44 43 40
38 44 42 38 39 37 42 46 46 49 48 54 62 61 62 65 72 79 77 75 76 80 81 75 72 72 70 70 70 68 65 64 62 59 56 53 51 50 48 47 48 47 48 47 49 49 47 49 53 53 54 56 59 61 62 59 53 50 46 39 32 27 26 26 24 23 21 20 21 20 20 20 20 21 21 21 21 21 23 23 23 23 23 27 36 39 40 39 41 41 39 40 41 39 43 42 40
40 40 41 42 45 45 49 50 48 50 51 56 63 64 66 67 74 82 82 78 80 82 80 78 77 73 68 71 73 70 67 64 60 57 54 53 52 51 49 48 47 48 49 48 49 49 47 50 54 53 54 56 58 61 62 60 54 50 45 40 35 28 26 26 24 23 21 20 20 19 18 17 17 21 23 22 22 21 23 23 22 23 23 24 31 38 40 39 41 42 40 41 41 39 41 41 43
42 39 44 50 50 50 54 54 53 53 56 62 63 66 70 70 75 84 85 81 80 78 78 81 81 74 69 71 75 71 66 63 60 55 53 54 53 52 51 50 48 48 49 48 49 49 48 52 54 55 55 55 58 61 62 59 55 51 44 41 36 27 25 25 23 22 20 21 20 18 17 11 12 20 22 23 23 21 22 23 22 23 24 24 26 33 38 39 41 42 40 41 40 39 40 40 42
52 51 57 60 53 50 53 56 59 56 60 66 64 70 75 74 77 83 86 82 76 74 76 83 81 73 69 73 75 68 61 60 58 55 54 55 55 54 52 51 50 49 50 48 48 48 49 54 55 56 56 55 58 61 61 57 54 50 42 37 33 25 25 24 23 22 21 22 20 18 15 8 10 18 21 22 23 22 22 23 23 23 24 24 23 27 34 37 40 41 40 40 39 38 40 39 40
60 61 64 64 58 55 55 58 63 62 67 71 70 77 80 78 79 80 83 82 76 74 77 80 76 70 71 75 73 65 58 57 56 55 55 56 56 55 52 51 51 51 52 50 48 47 51 56 56 57 57 57 59 59 58 55 51 45 36 33 29 25 25 24 22 22 22 22 20 19 13 7 10 15 20 22 22 22 22 22 24 23 24 23 22 24 30 34 38 40 40 39 38 39 42 41 41
65 66 65 62 61 65 62 61 65 68 77 78 73 77 77 76 78 79 81 82 78 76 80 80 72 69 75 75 71 65 59 58 57 55 55 55 54 54 52 51 52 53 53 51 48 48 53 57 57 59 60 58 57 56 55 52 47 39 33 31 27 25 25 22 22 23 22 21 21 20 12 8 10 13 19 20 19 21 21 21 23 24 23 23 23 23 27 33 36 38 39 39 38 39 43 41 41
73 71 70 63 61 68 66 62 63 66 73 76 72 72 73 75 80 83 85 84 81 78 81 79 71 72 75 71 68 65 59 59 57 53 53 53 53 53 51 51 52 53 52 50 49 50 54 58 59 60 59 57 56 54 51 47 42 34 30 29 26 24 23 22 23 22 21 21 21 20 13 8 10 12 16 16 17 20 21 21 23 24 23 23 24 21 25 32 35 35 37 39 37 40 45 42 42
79 76 80 75 68 68 67 64 64 65 69 73 74 72 74 76 79 84 86 85 81 77 76 72 69 74 75 69 65 62 60 59 56 52 52 54 54 52 52 52 52 53 51 49 50 51 56 59 60 60 59 56 53 52 47 41 36 31 28 29 26 25 24 22 22 21 21 21 21 20 14 8 9 12 14 15 15 19 21 21 23 24 22 23 23 20 23 29 33 34 34 37 38 41 45 42 42
83 78 80 77 67 66 67 67 67 66 71 75 74 72 75 76 76 79 82 80 75 70 70 68 69 74 71 65 63 61 60 57 53 53 55 55 55 54 54 54 52 51 52 52 52 53 57 60 60 60 58 54 50 48 42 34 32 30 27 27 25 25 24 22 21 21 21 21 21 19 14 9 9 11 13 14 13 17 20 21 23 21 20 23 22 21 22 25 30 34 32 34 36 41 44 43 42
77 68 67 67 64 70 69 67 69 67 71 75 71 71 75 73 72 76 77 74 68 64 65 65 69 73 68 63 64 63 60 56 54 57 59 57 57 57 56 57 55 53 55 55 54 56 59 61 61 58 54 50 48 43 36 32 30 28 26 26 26 25 23 22 22 21 21 22 22 18 14 10 8 10 12 12 12 14 17 19 20 18 19 23 22 23 24 21 25 30 33 33 33 38 43 42 41
63 55 58 61 64 79 74 66 71 67 69 73 68 70 75 72 71 74 74 70 65 63 64 64 67 70 67 63 64 63 60 59 58 60 61 59 59 59 59 59 58 56 57 55 55 58 59 61 61 57 52 48 45 40 35 33 29 26 27 26 25 24 21 21 22 21 21 22 22 19 16 12 9 9 10 11 11 12 16 18 16 15 19 23 23 25 26 23 21 23 29 33 32 36 41 42 42
56 54 57 59 64 80 77 68 72 68 70 72 65 68 72 72 74 73 72 68 64 66 68 66 65 65 63 63 62 61 61 61 60 61 60 59 60 60 59 60 60 59 57 56 57 59 60 61 61 56 51 47 42 37 33 31 29 28 29 26 25 23 21 21 22 21 22 22 22 20 16 13 10 9 9 11 11 11 14 15 14 15 17 22 24 25 25 22 21 20 22 30 34 36 39 42 43
53 53 55 60 65 76 75 70 70 68 67 64 64 72 75 74 76 74 73 72 66 66 67 66 66 64 63 64 62 61 62 61 60 60 59 59 60 61 59 59 60 60 59 58 59 60 61 62 61 56 53 49 42 36 32 30 30 29 29 26 24 22 21 21 20 21 22 22 22 17 13 12 10 9 9 9 10 11 13 15 16 16 17 22 26 26 24 21 20 20 18 25 35 38 39 41 43
52 55 61 65 64 70 72 69 69 69 65 62 67 77 81 79 75 73 75 76 69 66 67 67 67 66 63 61 59 60 61 60 59 60 60 60 60 60 60 60 61 61 61 61 61 62 62 62 61 57 52 48 42 35 32 30 29 30 29 26 23 20 21 21 19 20 22 23 22 16 12 10 10 12 12 9 11 12 12 16 19 18 18 22 25 24 23 20 20 20 19 23 31 36 39 41 40
61 66 70 64 58 63 68 67 68 68 67 68 70 75 79 77 73 71 72 74 71 69 70 69 68 65 61 59 59 61 60 59 59 59 61 61 60 59 60 60 61 62 62 63 63 63 63 62 59 54 49 45 40 35 31 29 29 29 29 27 24 21 21 22 21 21 22 24 23 18 14 10 8 14 14 11 14 12 10 13 16 17 18 20 22 24 23 23 21 21 22 24 27 29 32 35 35
74 79 72 58 54 58 63 65 65 65 68 70 71 74 76 76 75 72 72 73 71 68 68 69 67 64 61 58 58 60 59 59 59 59 60 62 61 60 60 61 62 63 64 63 62 62 62 62 58 52 47 42 38 33 30 29 30 29 27 25 24 22 22 22 22 22 22 24 24 21 19 12 8 10 10 10 13 11 8 11 13 16 17 18 23 26 24 24 24 23 25 26 26 25 25 27 27
79 77 65 55 55 58 63 67 65 68 75 72 73 78 78 77 79 76 74 74 70 67 66 63 61 61 60 57 56 57 56 58 60 60 61 62 62 62 63 64 64 64 64 62 62 62 62 60 56 50 45 40 36 33 31 31 30 28 26 26 24 22 22 22 21 22 22 23 23 24 22 16 9 9 8 8 10 9 8 9 10 15 19 18 22 26 25 25 25 24 25 25 25 24 24 24 23
76 66 59 55 55 58 64 70 70 72 76 70 70 80 80 75 75 74 72 71 68 65 64 61 60 60 58 55 54 56 56 58 61 61 60 61 64 65 65 65 64 63 64 64 64 63 62 59 54 47 42 37 35 33 32 32 30 28 27 26 25 23 22 21 21 22 22 21 23 24 24 18 10 8 8 7 8 7 8 8 8 14 22 21 21 25 26 26 24 23 24 24 24 23 24 24 23
70 60 58 60 62 64 67 71 71 70 73 74 74 82 83 74 69 68 67 67 65 61 60 60 60 60 58 56 57 59 60 62 62 60 59 61 64 66 66 64 62 63 65 67 66 65 62 58 53 46 40 37 35 35 34 33 31 28 27 27 25 22 21 20 21 22 23 23 24 25 24 21 14 9 8 8 7 7 7 8 8 12 18 23 23 23 25 26 24 24 24 24 24 24 23 23 24
68 61 62 64 67 70 71 73 73 70 76 81 77 79 82 76 69 66 64 65 64 62 61 59 58 59 58 58 58 60 62 64 64 61 59 61 64 66 66 64 63 64 67 67 66 65 62 57 51 44 39 37 37 37 35 33 32 29 28 28 25 23 21 21 21 22 23 24 24 24 24 24 20 13 8 8 8 8 8 7 8 8 12 19 23 23 24 25 25 25 24 23 23 24 23 23 24
65 63 65 66 66 67 69 69 68 71 79 77 70 72 76 74 69 65 64 65 63 63 61 59 58 58 57 58 60 62 64 65 64 63 60 62 66 67 67 65 65 66 66 66 64 62 59 53 47 42 39 38 39 39 36 34 33 30 28 28 27 24 22 22 22 22 24 25 25 24 24 25 24 18 11 8 8 8 8 7 9 10 9 14 19 23 25 24 25 25 23 22 21 22 24 23 24
61 64 67 68 67 64 63 61 62 74 80 71 65 70 72 70 68 63 64 66 63 60 59 59 59 57 56 59 61 63 65 65 64 64 61 64 67 68 68 68 67 65 64 63 61 59 56 50 45 41 39 40 41 40 39 37 34 31 29 28 27 25 23 24 23 23 25 25 25 26 25 25 26 24 17 10 9 8 8 8 9 11 11 11 14 20 22 21 23 24 23 23 21 22 23 24 24
64 68 68 68 69 65 62 62 67 77 77 66 64 69 68 67 66 62 63 67 64 59 59 61 60 59 57 59 61 63 65 66 67 66 63 64 68 69 69 69 67 64 63 61 60 58 55 51 47 42 40 42 42 41 40 38 35 32 30 28 28 26 24 24 23 23 25 25 25 25 26 26 26 25 21 15 11 9 9 9 8 10 11 9 10 16 19 21 24 25 24 24 22 23 23 23 24
69 70 71 71 70 69 70 72 74 78 74 67 67 71 69 68 65 61 62 66 63 58 56 56 56 57 57 58 62 64 65 67 68 67 63 63 67 69 69 68 66 65 62 62 62 60 58 55 51 47 44 45 45 43 43 40 37 35 32 28 27 27 25 24 23 23 24 24 24 25 25 26 26 26 25 22 17 12 9 9 9 9 9 8 9 12 15 20 24 24 24 24 24 25 24 23 24
72 72 75 76 73 72 79 83 80 76 74 70 68 70 72 70 65 60 59 59 59 54 53 52 52 54 56 58 62 64 66 69 68 65 61 62 65 66 66 67 66 65 64 63 63 61 59 57 54 49 48 49 49 48 47 46 45 43 38 32 28 27 26 26 25 24 25 25 26 26 25 25 25 26 27 27 25 21 15 11 9 9 9 9 8 9 10 13 16 16 19 21 24 26 27 25 24
74 74 78 81 78 76 79 83 81 77 76 74 71 72 76 73 66 61 57 55 55 54 53 53 53 55 56 58 62 63 64 64 63 61 59 60 62 63 64 66 66 65 65 64 63 61 58 56 53 50 50 51 50 50 49 50 51 50 48 43 36 31 28 27 27 26 26 27 27 27 27 26 25 25 26 27 27 27 22 16 12 10 9 9 9 9 8 9 9 10 13 15 17 20 22 21 19
76 76 83 84 79 76 75 77 79 77 72 70 69 68 69 69 67 64 61 56 54 54 53 53 53 53 54 56 57 57 56 56 55 56 56 57 60 62 64 66 65 65 65 64 61 59 57 55 53 52 52 53 52 51 52 53 54 53 52 50 45 40 34 31 31 29 28 28 28 28 28 27 26 25 25 27 28 28 27 24 20 15 11 10 9 9 9 9 8 8 9 10 10 12 12 12 13
77 76 78 74 70 71 69 68 71 69 65 64 65 63 63 65 65 66 67 62 58 54 52 52 52 51 51 52 52 50 49 51 51 52 53 54 57 61 62 63 64 64 64 62 59 59 59 58 57 56 56 56 55 55 55 55 56 56 55 53 52 48 42 37 33 33 33 32 30 29 29 29 28 27 26 27 28 28 28 28 27 24 20 16 12 10 9 9 9 9 9 9 9 10 10 10 10
74 74 69 64 65 65 62 61 61 60 62 64 63 63 65 68 70 71 71 68 64 61 56 55 55 54 53 51 50 49 48 48 49 49 51 52 55 58 60 61 62 62 62 62 60 59 59 58 58 59 59 58 57 56 56 56 56 57 57 57 56 54 50 45 38 35 35 35 34 32 30 30 29 28 28 27 27 28 28 29 29 29 28 25 21 18 14 11 10 9 10 10 10 10 10 10 10
65 64 61 61 65 63 59 60 60 59 64 65 62 64 67 69 73 75 71 66 65 63 61 60 59 58 58 56 54 53 53 52 51 51 52 53 56 59 60 61 61 61 62 63 62 58 57 57 58 59 59 58 58 57 56 56 56 57 59 59 59 58 57 53 48 41 37 35 35 34 33 31 30 29 29 27 26 27 28 28 29 29 29 29 28 27 23 19 15 12 11 10 10 11 11 11 11
59 59 58 58 59 59 58 59 58 57 62 65 63 65 66 67 71 74 70 65 64 63 60 59 59 60 62 62 61 61 60 58 56 55 56 57 60 61 62 62 61 60 60 60 59 56 54 56 57 58 58 57 57 57 56 56 57 57 59 59 59 59 59 57 55 51 46 40 36 34 33 32 31 30 30 28 27 27 28 28 28 29 29 30 29 29 29 27 24 20 16 13 11 11 11 11 11
60 60 59 55 53 55 56 56 56 55 58 63 63 66 68 67 67 68 66 63 64 63 60 59 59 61 63 64 65 64 64 65 63 61 62 63 65 65 63 61 59 58 59 59 59 57 55 56 56 56 56 56 56 58 58 59 62 64 66 65 63 61 61 60 59 57 55 50 43 38 35 34 33 31 30 30 29 28 29 29 28 28 28 29 29 28 29 30 29 28 25 21 17 14 13 12 11
58 59 59 56 54 55 54 54 56 54 56 60 62 67 71 68 65 64 62 61 62 63 61 60 60 61 63 64 65 65 66 66 66 66 66 66 68 68 66 64 63 63 64 64 64 63 63 63 63 61 61 63 64 67 68 70 73 76 76 76 74 71 68 66 64 63 61 58 52 45 40 38 37 34 31 31 30 29 29 29 28 28 28 29 29 28 28 28 29 29 28 27 25 22 18 15 13